Simultaneous Nadir Overpasses (SNOs) Predictions

Prediction of SNOs between GOES-14 and AQUA Satellite Orbit:

Table of predicted SNOs for the next 14.0 days since TLE Epoch: 5/31/2019
Index Date Time (GOES-14) GOES-14 Lat,Lon AQUA Lat,Lon Distance(km) Time Diff (sec)
1 06/01/2019 08:29:43 0.03,-104.43 -0.22,-103.21 138.13 80
2 06/01/2019 20:51:09 -0.01,-104.55 -0.81,-108.42 439.24 80
3 06/03/2019 08:17:31 0.03,-104.43 -0.83,-100.25 475.16 80
4 06/03/2019 20:36:17 -0.01,-104.56 -0.20,-105.46 102.55 80
5 06/05/2019 20:24:05 -0.01,-104.56 0.41,-102.50 233.87 80
6 06/06/2019 08:45:20 -0.01,-104.43 0.67,-107.66 366.85 80
7 06/08/2019 08:33:08 -0.01,-104.43 0.06,-104.70 30.29 80
8 06/10/2019 08:23:36 -0.00,-104.44 -0.56,-101.74 306.41 80
9 06/10/2019 20:42:22 0.02,-104.57 -0.46,-106.95 269.79 80
10 06/12/2019 20:32:50 0.02,-104.58 0.16,-103.99 67.13 80




NCC Satellite Simultaneous Nadir Overpasses (SNOs) Prediction Service
